sat.trackr.live / text

‹ back to catalog

STARLINK-3845

NORAD 52541 · 2022-051J

PAYLOAD ACTIVE UNKNOWN

§ Identity

Operator
Country
US
Launch date
2022-05-13
Launch site
AFWTR
Launch vehicle
Mass (kg)
RCS (m²)

Purposes: comms

External: N2YO · Heavens-Above · Gunter

§ Orbital elements

Epoch: 2026-05-25T03:50:12.444000Z

Period
95.44 min
Inclination
53.2130°
Eccentricity
0.0000988
Mean motion
15.08848499 rev/d
Perigee alt
539.0 km
Apogee alt
540.4 km
Semi-major
6,917.9 km
B*
8.2228e-5
RAAN
150.8317°
Arg perigee
68.9392°
Mean anomaly
291.1705°
Rev number
22,291

§ Raw data

STARLINK-38451 52541U 22051J   26145.15986625  .00001021  00000+0  82228-4 0  99962 52541  53.2130 150.8317 0000988  68.9392 291.1705 15.08848499222917

JSON: /api/v1/satellites/52541 · /tle

For live sub-satellite position, see the globe view (requires WebGL).

§ Visibility from observer

Set your observer location to see the next 7 days of passes ≥ 10°. The values pass through the URL so the page stays shareable.

No JS? Fill the form by hand. The geolocation button needs JavaScript.